RJA306 OJAI-OJAQ

Flight info

Callsign RJA306
Flight time 0h 33m
Altitude 18000
Route LOSIL Y724 TAPKO
Aircraft A20N/M-SDE2E3FGHIRWXY/LB1

Departure

Time 2026-05-04 12:00
Airport Queen Alia International Airport (OJAI)

Arrival

Time 2026-05-04 12:33
Airport King Hussein International Airport (OJAQ)
Time Latitude Longitude Altitude Speed Heading
2026-05-04 11:38 31.72533 35.98535 2403 ft 0 kts 351°
2026-05-04 11:51 31.72527 35.98536 2404 ft 2 kts 353°
2026-05-04 11:51 31.72512 35.98538 2404 ft 2 kts 351°
2026-05-04 11:51 31.72497 35.98541 2404 ft 2 kts 351°
2026-05-04 11:51 31.72482 35.98544 2404 ft 2 kts 357°
2026-05-04 11:52 31.72469 35.98539 2404 ft 2 kts 43°
2026-05-04 11:52 31.72462 35.98527 2404 ft 0 kts 75°
2026-05-04 11:52 31.72461 35.98519 2404 ft 1 kts 79°
2026-05-04 11:52 31.72461 35.98518 2404 ft 0 kts 79°
2026-05-04 11:55 31.72468 35.98557 2403 ft 7 kts 78°
2026-05-04 11:55 31.72481 35.98642 2403 ft 14 kts 80°
2026-05-04 11:56 31.72502 35.98788 2403 ft 19 kts 80°
2026-05-04 11:56 31.72559 35.98914 2404 ft 18 kts 358°
2026-05-04 11:56 31.72675 35.98920 2404 ft 17 kts 56°
2026-05-04 11:56 31.72703 35.99061 2404 ft 19 kts 81°
2026-05-04 11:57 31.72726 35.99229 2403 ft 22 kts 80°
2026-05-04 11:57 31.72753 35.99413 2404 ft 25 kts 80°
2026-05-04 11:57 31.72784 35.99621 2404 ft 27 kts 80°
2026-05-04 11:57 31.72820 35.99873 2404 ft 27 kts 79°
2026-05-04 11:58 31.72850 36.00090 2404 ft 25 kts 79°
2026-05-04 11:58 31.72881 36.00293 2404 ft 24 kts 81°
2026-05-04 11:58 31.72910 36.00491 2404 ft 23 kts 79°
2026-05-04 11:58 31.72937 36.00682 2404 ft 23 kts 81°
2026-05-04 11:59 31.73008 36.00784 2404 ft 16 kts 351°
2026-05-04 11:59 31.73122 36.00759 2404 ft 16 kts 348°
2026-05-04 11:59 31.73212 36.00706 2404 ft 15 kts 273°
2026-05-04 11:59 31.73184 36.00498 2404 ft 54 kts 261°
2026-05-04 12:00 31.73080 35.99769 2404 ft 122 kts 260°
2026-05-04 12:00 31.72919 35.98593 2586 ft 159 kts 257°
2026-05-04 12:00 31.72730 35.97315 3242 ft 162 kts 256°
2026-05-04 12:00 31.72517 35.96022 3993 ft 162 kts 249°
2026-05-04 12:01 31.71833 35.95017 4523 ft 171 kts 207°
2026-05-04 12:01 31.70602 35.94715 4960 ft 191 kts 190°
2026-05-04 12:02 31.60677 35.93133 8837 ft 266 kts 191°
2026-05-04 12:03 31.58850 35.92817 9702 ft 269 kts 191°
2026-05-04 12:03 31.56976 35.92491 10541 ft 273 kts 191°
2026-05-04 12:03 31.55038 35.92153 11052 ft 289 kts 191°
2026-05-04 12:03 31.53000 35.91797 11453 ft 307 kts 191°
2026-05-04 12:04 31.50831 35.91421 11828 ft 325 kts 190°
2026-05-04 12:04 31.48531 35.91013 12156 ft 342 kts 192°
2026-05-04 12:04 31.46250 35.90198 12453 ft 357 kts 203°
2026-05-04 12:04 31.43922 35.89028 12742 ft 373 kts 205°
2026-05-04 12:05 31.41523 35.87785 13166 ft 383 kts 205°
2026-05-04 12:05 31.39063 35.86532 13852 ft 386 kts 205°
2026-05-04 12:05 31.36615 35.85307 14513 ft 389 kts 205°
2026-05-04 12:05 31.34097 35.84062 15105 ft 393 kts 205°
2026-05-04 12:06 31.31593 35.82835 15730 ft 396 kts 205°
2026-05-04 12:06 31.29048 35.81594 16352 ft 398 kts 205°
2026-05-04 12:06 31.26473 35.80345 16948 ft 400 kts 205°
2026-05-04 12:06 31.23893 35.79095 17517 ft 403 kts 205°
2026-05-04 12:07 31.21321 35.77851 17910 ft 405 kts 205°
2026-05-04 12:07 31.18716 35.76592 18028 ft 405 kts 205°
2026-05-04 12:07 31.16110 35.75334 18035 ft 404 kts 205°
2026-05-04 12:07 31.13522 35.74086 18041 ft 404 kts 205°
2026-05-04 12:08 31.10920 35.72832 18045 ft 404 kts 205°
2026-05-04 12:08 31.08301 35.71571 18047 ft 404 kts 205°
2026-05-04 12:08 31.05707 35.70324 18048 ft 404 kts 205°
2026-05-04 12:08 31.03123 35.69082 18049 ft 404 kts 205°
2026-05-04 12:09 31.00496 35.67820 18048 ft 405 kts 205°
2026-05-04 12:09 30.97908 35.66577 18047 ft 406 kts 205°
2026-05-04 12:09 30.95271 35.65311 18045 ft 407 kts 205°
2026-05-04 12:09 30.92631 35.64045 18042 ft 409 kts 205°
2026-05-04 12:10 30.90000 35.62784 18038 ft 410 kts 205°
2026-05-04 12:10 30.87296 35.61494 18035 ft 411 kts 205°
2026-05-04 12:10 30.84640 35.60233 18031 ft 412 kts 205°
2026-05-04 12:10 30.82002 35.58979 18028 ft 412 kts 205°
2026-05-04 12:11 30.79367 35.57724 18026 ft 412 kts 205°
2026-05-04 12:11 30.76716 35.56461 18025 ft 412 kts 205°
2026-05-04 12:11 30.74071 35.55200 18024 ft 412 kts 205°
2026-05-04 12:11 30.71409 35.53931 18023 ft 412 kts 205°
2026-05-04 12:12 30.68757 35.52667 18023 ft 412 kts 205°
2026-05-04 12:12 30.66131 35.51416 18023 ft 412 kts 205°
2026-05-04 12:12 30.63475 35.50152 18023 ft 412 kts 205°
2026-05-04 12:12 30.60827 35.48892 18023 ft 412 kts 205°
2026-05-04 12:13 30.58177 35.47631 18023 ft 412 kts 205°
2026-05-04 12:14 30.38923 35.38510 18005 ft 433 kts 202°
2026-05-04 12:15 30.36145 35.37196 18004 ft 433 kts 202°
2026-05-04 12:15 30.33353 35.35875 18004 ft 433 kts 202°
2026-05-04 12:15 30.30574 35.34560 18004 ft 433 kts 202°
2026-05-04 12:15 30.27765 35.33219 18004 ft 433 kts 202°
2026-05-04 12:16 30.25006 35.31903 18003 ft 433 kts 202°
2026-05-04 12:16 30.22212 35.30577 17922 ft 433 kts 202°
2026-05-04 12:16 30.19465 35.29279 17795 ft 432 kts 202°
2026-05-04 12:16 30.16676 35.27965 17662 ft 430 kts 202°
2026-05-04 12:17 30.13982 35.26697 17530 ft 412 kts 202°
2026-05-04 12:17 30.11387 35.25477 17308 ft 398 kts 202°
2026-05-04 12:17 30.08851 35.24288 16869 ft 391 kts 202°
2026-05-04 12:17 30.06339 35.23112 16483 ft 383 kts 202°
2026-05-04 12:18 30.03919 35.21982 16133 ft 374 kts 202°
2026-05-04 12:18 30.01526 35.20865 15795 ft 366 kts 202°
2026-05-04 12:18 29.99171 35.19767 15300 ft 363 kts 202°
2026-05-04 12:18 29.96880 35.18699 14889 ft 358 kts 202°
2026-05-04 12:19 29.94590 35.17633 14433 ft 355 kts 202°
2026-05-04 12:19 29.92320 35.16576 13980 ft 353 kts 202°
2026-05-04 12:19 29.90027 35.15509 13533 ft 351 kts 202°
2026-05-04 12:19 29.87776 35.14467 13122 ft 349 kts 201°
2026-05-04 12:20 29.85517 35.13423 12719 ft 347 kts 201°
2026-05-04 12:20 29.83304 35.12399 12332 ft 345 kts 202°
2026-05-04 12:20 29.81106 35.11381 12003 ft 338 kts 202°
2026-05-04 12:20 29.78958 35.10386 11700 ft 330 kts 202°
2026-05-04 12:21 29.76865 35.09415 11262 ft 316 kts 202°
2026-05-04 12:21 29.74876 35.08493 10873 ft 302 kts 202°
2026-05-04 12:21 29.72977 35.07613 10525 ft 287 kts 202°
2026-05-04 12:21 29.71164 35.06772 10239 ft 280 kts 202°
2026-05-04 12:22 29.69361 35.05937 10006 ft 274 kts 202°
2026-05-04 12:22 29.67600 35.05121 9721 ft 270 kts 202°
2026-05-04 12:22 29.65870 35.04317 9367 ft 269 kts 202°
2026-05-04 12:22 29.64138 35.03514 9015 ft 268 kts 202°
2026-05-04 12:23 29.62436 35.02724 8774 ft 262 kts 202°
2026-05-04 12:23 29.60772 35.01953 8711 ft 250 kts 202°
2026-05-04 12:23 29.59209 35.01234 8639 ft 241 kts 199°
2026-05-04 12:23 29.57595 35.00802 8360 ft 240 kts 185°
2026-05-04 12:24 29.55930 35.00723 8087 ft 238 kts 180°
2026-05-04 12:24 29.54273 35.00721 7818 ft 237 kts 180°
2026-05-04 12:24 29.52629 35.00725 7555 ft 236 kts 180°
2026-05-04 12:24 29.50984 35.00722 7294 ft 235 kts 180°
2026-05-04 12:25 29.49366 35.00712 7037 ft 235 kts 180°
2026-05-04 12:25 29.47786 35.00698 6787 ft 234 kts 180°
2026-05-04 12:25 29.46167 35.00682 6530 ft 233 kts 180°
2026-05-04 12:25 29.44552 35.00665 6275 ft 232 kts 180°
2026-05-04 12:26 29.42942 35.00647 6020 ft 231 kts 180°
2026-05-04 12:26 29.41361 35.00630 5769 ft 230 kts 180°
2026-05-04 12:26 29.39760 35.00612 5499 ft 230 kts 180°
2026-05-04 12:26 29.38180 35.00412 5199 ft 229 kts 202°
2026-05-04 12:27 29.36933 34.99353 4937 ft 227 kts 236°
2026-05-04 12:27 29.36387 34.97670 4666 ft 227 kts 268°
2026-05-04 12:27 29.36699 34.95950 4401 ft 226 kts 300°
2026-05-04 12:27 29.37773 34.94658 4146 ft 225 kts 332°
2026-05-04 12:28 29.39262 34.94223 3931 ft 224 kts
2026-05-04 12:28 29.40776 34.94560 3743 ft 222 kts 17°
2026-05-04 12:28 29.42207 34.95106 3628 ft 209 kts 19°
2026-05-04 12:28 29.43538 34.95629 3538 ft 199 kts 18°
2026-05-04 12:29 29.44860 34.96124 3262 ft 198 kts 18°
2026-05-04 12:29 29.46142 34.96579 2975 ft 192 kts 17°
2026-05-04 12:29 29.47403 34.97017 2701 ft 187 kts 17°
2026-05-04 12:29 29.48642 34.97444 2439 ft 183 kts 17°
2026-05-04 12:30 29.49837 34.97857 2193 ft 179 kts 17°
2026-05-04 12:30 29.51012 34.98264 1961 ft 173 kts 17°
2026-05-04 12:30 29.52099 34.98642 1765 ft 156 kts 17°
2026-05-04 12:30 29.53106 34.98992 1537 ft 143 kts 17°
2026-05-04 12:31 29.54041 34.99319 1353 ft 138 kts 17°
2026-05-04 12:31 29.54972 34.99643 1179 ft 138 kts 17°
2026-05-04 12:31 29.55890 34.99964 1002 ft 138 kts 17°
2026-05-04 12:31 29.56802 35.00282 818 ft 138 kts 17°
2026-05-04 12:32 29.57716 35.00601 630 ft 137 kts 17°
2026-05-04 12:32 29.59531 35.01235 270 ft 136 kts 17°
2026-05-04 12:32 29.60426 35.01545 183 ft 124 kts 17°
2026-05-04 12:33 29.61096 35.01781 182 ft 82 kts 17°
2026-05-04 12:33 29.61598 35.01954 182 ft 67 kts 17°
2026-05-04 12:33 29.61993 35.02094 182 ft 47 kts 18°
2026-05-04 12:33 29.62159 35.02221 182 ft 24 kts 61°
2026-05-04 12:34 29.62145 35.02336 183 ft 16 kts 186°
2026-05-04 12:34 29.62030 35.02302 184 ft 18 kts 196°
2026-05-04 12:34 29.61899 35.02256 184 ft 21 kts 197°
2026-05-04 12:34 29.61741 35.02202 182 ft 24 kts 197°
2026-05-04 12:35 29.61572 35.02143 182 ft 26 kts 197°
2026-05-04 12:35 29.61400 35.02083 182 ft 24 kts 197°
2026-05-04 12:35 29.61239 35.02026 182 ft 23 kts 197°
2026-05-04 12:35 29.61098 35.01977 182 ft 10 kts 197°
2026-05-04 12:36 29.61050 35.02010 182 ft 4 kts 112°
2026-05-04 12:36 29.61043 35.02039 182 ft 0 kts 106°
2026-05-04 12:36 29.61043 35.02040 182 ft 0 kts 106°